Year,Month,Day,Hour,Minute,Value (Times are PST for temperature in C)
2022,10,03,00,00,13.40
2022,10,03,00,01,13.40
2022,10,03,00,02,13.40
2022,10,03,00,03,13.40
2022,10,03,00,04,13.40
2022,10,03,00,05,13.30
2022,10,03,00,06,13.30
2022,10,03,00,07,13.30
2022,10,03,00,08,13.30
2022,10,03,00,09,13.30
2022,10,03,00,10,13.30
2022,10,03,00,11,13.30
2022,10,03,00,12,13.20
2022,10,03,00,13,13.20
2022,10,03,00,14,13.20
2022,10,03,00,15,13.20
2022,10,03,00,16,13.20
2022,10,03,00,17,13.20
2022,10,03,00,18,13.20
2022,10,03,00,19,13.20
2022,10,03,00,20,13.20
2022,10,03,00,21,13.20
2022,10,03,00,22,13.20
2022,10,03,00,23,13.20
2022,10,03,00,24,13.20
2022,10,03,00,25,13.20
2022,10,03,00,26,13.20
2022,10,03,00,27,13.10
2022,10,03,00,28,13.10
2022,10,03,00,29,13.10
2022,10,03,00,30,13.10
2022,10,03,00,31,13.10
2022,10,03,00,32,13.10
2022,10,03,00,33,13.10
2022,10,03,00,34,13.10
2022,10,03,00,35,13.10
2022,10,03,00,36,13.10
2022,10,03,00,37,13.10
2022,10,03,00,38,13.10
2022,10,03,00,39,13.10
2022,10,03,00,40,13.00
2022,10,03,00,41,13.00
2022,10,03,00,42,13.00
2022,10,03,00,43,13.00
2022,10,03,00,44,13.00
2022,10,03,00,45,13.00
2022,10,03,00,46,13.00
2022,10,03,00,47,13.00
2022,10,03,00,48,13.00
2022,10,03,00,49,12.90
2022,10,03,00,50,12.90
2022,10,03,00,51,12.90
2022,10,03,00,52,12.90
2022,10,03,00,53,12.90
2022,10,03,00,54,12.90
2022,10,03,00,55,12.90
2022,10,03,00,56,12.90
2022,10,03,00,57,12.90
2022,10,03,00,58,12.80
2022,10,03,00,59,12.80
2022,10,03,01,00,12.80
2022,10,03,01,01,12.80
2022,10,03,01,02,12.80
2022,10,03,01,03,12.80
2022,10,03,01,04,12.80
2022,10,03,01,05,12.80
2022,10,03,01,06,12.80
2022,10,03,01,07,12.80
2022,10,03,01,08,12.80
2022,10,03,01,09,12.80
2022,10,03,01,10,12.80
2022,10,03,01,11,12.80
2022,10,03,01,12,12.80
2022,10,03,01,13,12.80
2022,10,03,01,14,12.70
2022,10,03,01,15,12.70
2022,10,03,01,16,12.70
2022,10,03,01,17,12.70
2022,10,03,01,18,12.70
2022,10,03,01,19,12.70
2022,10,03,01,20,12.70
2022,10,03,01,21,12.60
2022,10,03,01,22,12.60
2022,10,03,01,23,12.60
2022,10,03,01,24,12.50
2022,10,03,01,25,12.50
2022,10,03,01,26,12.50
2022,10,03,01,27,12.40
2022,10,03,01,28,12.40
2022,10,03,01,29,12.40
2022,10,03,01,30,12.40
2022,10,03,01,31,12.40
2022,10,03,01,32,12.40
2022,10,03,01,33,12.40
2022,10,03,01,34,12.40
2022,10,03,01,35,12.40
2022,10,03,01,36,12.40
2022,10,03,01,37,12.40
2022,10,03,01,38,12.30
2022,10,03,01,39,12.30
2022,10,03,01,40,12.30
2022,10,03,01,41,12.30
2022,10,03,01,42,12.30
2022,10,03,01,43,12.30
2022,10,03,01,44,12.30
2022,10,03,01,45,12.30
2022,10,03,01,46,12.30
2022,10,03,01,47,12.30
2022,10,03,01,48,12.30
2022,10,03,01,49,12.30
2022,10,03,01,50,12.30
2022,10,03,01,51,12.30
2022,10,03,01,52,12.30
2022,10,03,01,53,12.30
2022,10,03,01,54,12.30
2022,10,03,01,55,12.30
2022,10,03,01,56,12.30
2022,10,03,01,57,12.30
2022,10,03,01,58,12.30
2022,10,03,01,59,12.30
2022,10,03,02,00,12.30
2022,10,03,02,01,12.30
2022,10,03,02,02,12.30
2022,10,03,02,03,12.30
2022,10,03,02,04,12.30
2022,10,03,02,05,12.30
2022,10,03,02,06,12.30
2022,10,03,02,07,12.30
2022,10,03,02,08,12.30
2022,10,03,02,09,12.30
2022,10,03,02,10,12.20
2022,10,03,02,11,12.30
2022,10,03,02,12,12.20
2022,10,03,02,13,12.20
2022,10,03,02,14,12.20
2022,10,03,02,15,12.20
2022,10,03,02,16,12.20
2022,10,03,02,17,12.20
2022,10,03,02,18,12.20
2022,10,03,02,19,12.20
2022,10,03,02,20,12.20
2022,10,03,02,21,12.20
2022,10,03,02,22,12.10
2022,10,03,02,23,12.10
2022,10,03,02,24,12.10
2022,10,03,02,25,12.10
2022,10,03,02,26,12.10
2022,10,03,02,27,12.10
2022,10,03,02,28,12.00
2022,10,03,02,29,12.00
2022,10,03,02,30,12.00
2022,10,03,02,31,11.90
2022,10,03,02,32,11.90
2022,10,03,02,33,11.90
2022,10,03,02,34,11.90
2022,10,03,02,35,11.90
2022,10,03,02,36,11.90
2022,10,03,02,37,11.90
2022,10,03,02,38,11.90
2022,10,03,02,39,11.90
2022,10,03,02,40,11.80
2022,10,03,02,41,11.80
2022,10,03,02,42,11.80
2022,10,03,02,43,11.80
2022,10,03,02,44,11.80
2022,10,03,02,45,11.80
2022,10,03,02,46,11.80
2022,10,03,02,47,11.80
2022,10,03,02,48,11.80
2022,10,03,02,49,11.80
2022,10,03,02,50,11.70
2022,10,03,02,51,11.70
2022,10,03,02,52,11.70
2022,10,03,02,53,11.70
2022,10,03,02,54,11.60
2022,10,03,02,55,11.60
2022,10,03,02,56,11.60
2022,10,03,02,57,11.60
2022,10,03,02,58,11.60
2022,10,03,02,59,11.60
2022,10,03,03,00,11.60
2022,10,03,03,01,11.60
2022,10,03,03,02,11.60
2022,10,03,03,03,11.60
2022,10,03,03,04,11.60
2022,10,03,03,05,11.60
2022,10,03,03,06,11.60
2022,10,03,03,07,11.60
2022,10,03,03,08,11.60
2022,10,03,03,09,11.50
2022,10,03,03,10,11.50
2022,10,03,03,11,11.50
2022,10,03,03,12,11.50
2022,10,03,03,13,11.50
2022,10,03,03,14,11.50
2022,10,03,03,15,11.40
2022,10,03,03,16,11.40
2022,10,03,03,17,11.40
2022,10,03,03,18,11.40
2022,10,03,03,19,11.40
2022,10,03,03,20,11.40
2022,10,03,03,21,11.30
2022,10,03,03,22,11.30
2022,10,03,03,23,11.30
2022,10,03,03,24,11.30
2022,10,03,03,25,11.30
2022,10,03,03,26,11.30
2022,10,03,03,27,11.30
2022,10,03,03,28,11.30
2022,10,03,03,29,11.30
2022,10,03,03,30,11.30
2022,10,03,03,31,11.30
2022,10,03,03,32,11.20
2022,10,03,03,33,11.20
2022,10,03,03,34,11.20
2022,10,03,03,35,11.20
2022,10,03,03,36,11.20
2022,10,03,03,37,11.20
2022,10,03,03,38,11.20
2022,10,03,03,39,11.20
2022,10,03,03,40,11.20
2022,10,03,03,41,11.10
2022,10,03,03,42,11.10
2022,10,03,03,43,11.10
2022,10,03,03,44,11.10
2022,10,03,03,45,11.10
2022,10,03,03,46,11.10
2022,10,03,03,47,11.10
2022,10,03,03,48,11.10
2022,10,03,03,49,11.10
2022,10,03,03,50,11.10
2022,10,03,03,51,11.10
2022,10,03,03,52,11.10
2022,10,03,03,53,11.10
2022,10,03,03,54,11.00
2022,10,03,03,55,11.00
2022,10,03,03,56,11.00
2022,10,03,03,57,11.00
2022,10,03,03,58,11.00
2022,10,03,03,59,11.00
2022,10,03,04,00,11.00
2022,10,03,04,01,11.00
2022,10,03,04,02,11.00
2022,10,03,04,03,11.00
2022,10,03,04,04,11.00
2022,10,03,04,05,11.00
2022,10,03,04,06,10.90
2022,10,03,04,07,10.90
2022,10,03,04,08,10.90
2022,10,03,04,09,10.90
2022,10,03,04,10,10.90
2022,10,03,04,11,10.90
2022,10,03,04,12,10.90
2022,10,03,04,13,10.90
2022,10,03,04,14,10.90
2022,10,03,04,15,10.90
2022,10,03,04,16,10.80
2022,10,03,04,17,10.80
2022,10,03,04,18,10.80
2022,10,03,04,19,10.80
2022,10,03,04,20,10.80
2022,10,03,04,21,10.80
2022,10,03,04,22,10.80
2022,10,03,04,23,10.70
2022,10,03,04,24,10.70
2022,10,03,04,25,10.70
2022,10,03,04,26,10.70
2022,10,03,04,27,10.70
2022,10,03,04,28,10.70
2022,10,03,04,29,10.70
2022,10,03,04,30,10.60
2022,10,03,04,31,10.60
2022,10,03,04,32,10.60
2022,10,03,04,33,10.60
2022,10,03,04,34,10.60
2022,10,03,04,35,10.60
2022,10,03,04,36,10.60
2022,10,03,04,37,10.60
2022,10,03,04,38,10.60
2022,10,03,04,39,10.60
2022,10,03,04,40,10.60
2022,10,03,04,41,10.60
2022,10,03,04,42,10.60
2022,10,03,04,43,10.60
2022,10,03,04,44,10.60
2022,10,03,04,45,10.60
2022,10,03,04,46,10.60
2022,10,03,04,47,10.60
2022,10,03,04,48,10.60
2022,10,03,04,49,10.60
2022,10,03,04,50,10.70
2022,10,03,04,51,10.70
2022,10,03,04,52,10.70
2022,10,03,04,53,10.70
2022,10,03,04,54,10.60
2022,10,03,04,55,10.60
2022,10,03,04,56,10.60
2022,10,03,04,57,10.60
2022,10,03,04,58,10.60
2022,10,03,04,59,10.60
2022,10,03,05,00,10.60
2022,10,03,05,01,10.50
2022,10,03,05,02,10.50
2022,10,03,05,03,10.50
2022,10,03,05,04,10.50
2022,10,03,05,05,10.60
2022,10,03,05,06,10.60
2022,10,03,05,07,10.60
2022,10,03,05,08,10.60
2022,10,03,05,09,10.60
2022,10,03,05,10,10.60
2022,10,03,05,11,10.60
2022,10,03,05,12,10.60
2022,10,03,05,13,10.60
2022,10,03,05,14,10.60
2022,10,03,05,15,10.60
2022,10,03,05,16,10.60
2022,10,03,05,17,10.60
2022,10,03,05,18,10.60
2022,10,03,05,19,10.60
2022,10,03,05,20,10.60
2022,10,03,05,21,10.60
2022,10,03,05,22,10.60
2022,10,03,05,23,10.60
2022,10,03,05,24,10.60
2022,10,03,05,25,10.60
2022,10,03,05,26,10.60
2022,10,03,05,27,10.60
2022,10,03,05,28,10.60
2022,10,03,05,29,10.60
2022,10,03,05,30,10.60
2022,10,03,05,31,10.60
2022,10,03,05,32,10.60
2022,10,03,05,33,10.60
2022,10,03,05,34,10.60
2022,10,03,05,35,10.50
2022,10,03,05,36,10.50
2022,10,03,05,37,10.50
2022,10,03,05,38,10.50
2022,10,03,05,39,10.40
2022,10,03,05,40,10.40
2022,10,03,05,41,10.40
2022,10,03,05,42,10.40
2022,10,03,05,43,10.30
2022,10,03,05,44,10.30
2022,10,03,05,45,10.30
2022,10,03,05,46,10.30
2022,10,03,05,47,10.30
2022,10,03,05,48,10.30
2022,10,03,05,49,10.30
2022,10,03,05,50,10.30
2022,10,03,05,51,10.30
2022,10,03,05,52,10.20
2022,10,03,05,53,10.20
2022,10,03,05,54,10.20
2022,10,03,05,55,10.20
2022,10,03,05,56,10.20
2022,10,03,05,57,10.10
2022,10,03,05,58,10.10
2022,10,03,05,59,10.10
2022,10,03,06,00,10.10
2022,10,03,06,01,10.00
2022,10,03,06,02,10.00
2022,10,03,06,03,10.00
2022,10,03,06,04,10.00
2022,10,03,06,05,10.00
2022,10,03,06,06,10.00
2022,10,03,06,07,10.00
2022,10,03,06,08,10.00
2022,10,03,06,09,9.90
2022,10,03,06,10,9.90
2022,10,03,06,11,9.90
2022,10,03,06,12,9.90
2022,10,03,06,13,10.00
2022,10,03,06,14,10.00
2022,10,03,06,15,10.00
2022,10,03,06,16,10.00
2022,10,03,06,17,10.00
2022,10,03,06,18,10.00
2022,10,03,06,19,9.90
2022,10,03,06,20,9.90
2022,10,03,06,21,9.90
2022,10,03,06,22,9.90
2022,10,03,06,23,9.90
2022,10,03,06,24,9.90
2022,10,03,06,25,9.90
2022,10,03,06,26,9.90
2022,10,03,06,27,9.90
2022,10,03,06,28,9.90
2022,10,03,06,29,9.90
2022,10,03,06,30,10.00
2022,10,03,06,31,10.00
2022,10,03,06,32,10.10
2022,10,03,06,33,10.10
2022,10,03,06,34,10.10
2022,10,03,06,35,10.10
2022,10,03,06,36,10.10
2022,10,03,06,37,10.10
2022,10,03,06,38,10.20
2022,10,03,06,39,10.20
2022,10,03,06,40,10.10
2022,10,03,06,41,10.10
2022,10,03,06,42,10.10
2022,10,03,06,43,10.10
2022,10,03,06,44,10.10
2022,10,03,06,45,10.10
2022,10,03,06,46,10.00
2022,10,03,06,47,10.00
2022,10,03,06,48,10.00
2022,10,03,06,49,10.00
2022,10,03,06,50,9.90
2022,10,03,06,51,9.90
2022,10,03,06,52,9.90
2022,10,03,06,53,9.90
2022,10,03,06,54,10.00
2022,10,03,06,55,10.00
2022,10,03,06,56,10.00
2022,10,03,06,57,10.00
2022,10,03,06,58,10.00
2022,10,03,06,59,10.00
2022,10,03,07,00,10.00
2022,10,03,07,01,10.00
2022,10,03,07,02,10.00
2022,10,03,07,03,10.00
2022,10,03,07,04,10.00
2022,10,03,07,05,10.00
2022,10,03,07,06,10.00
2022,10,03,07,07,10.10
2022,10,03,07,08,10.10
2022,10,03,07,09,10.10
2022,10,03,07,10,10.10
2022,10,03,07,11,10.10
2022,10,03,07,12,10.10
2022,10,03,07,13,10.10
2022,10,03,07,14,10.10
2022,10,03,07,15,10.10
2022,10,03,07,16,10.10
2022,10,03,07,17,10.10
2022,10,03,07,18,10.10
2022,10,03,07,19,10.10
2022,10,03,07,20,10.10
2022,10,03,07,21,10.20
2022,10,03,07,22,10.20
2022,10,03,07,23,10.20
2022,10,03,07,24,10.20
2022,10,03,07,25,10.20
2022,10,03,07,26,10.20
2022,10,03,07,27,10.20
2022,10,03,07,28,10.20
2022,10,03,07,29,10.20
2022,10,03,07,30,10.20
2022,10,03,07,31,10.20
2022,10,03,07,32,10.20
2022,10,03,07,33,10.20
2022,10,03,07,34,10.20
2022,10,03,07,35,10.20
2022,10,03,07,36,10.20
2022,10,03,07,37,10.20
2022,10,03,07,38,10.20
2022,10,03,07,39,10.20
2022,10,03,07,40,10.20
2022,10,03,07,41,10.20
2022,10,03,07,42,10.30
2022,10,03,07,43,10.30
2022,10,03,07,44,10.30
2022,10,03,07,45,10.40
2022,10,03,07,46,10.40
2022,10,03,07,47,10.40
2022,10,03,07,48,10.40
2022,10,03,07,49,10.40
2022,10,03,07,50,10.40
2022,10,03,07,51,10.40
2022,10,03,07,52,10.40
2022,10,03,07,53,10.40
2022,10,03,07,54,10.40
2022,10,03,07,55,10.40
2022,10,03,07,56,10.50
2022,10,03,07,57,10.50
2022,10,03,07,58,10.60
2022,10,03,07,59,10.60
2022,10,03,08,00,10.60
2022,10,03,08,01,10.70
2022,10,03,08,02,10.70
2022,10,03,08,03,10.70
2022,10,03,08,04,10.70
2022,10,03,08,05,10.70
2022,10,03,08,06,10.70
2022,10,03,08,07,10.70
2022,10,03,08,08,10.80
2022,10,03,08,09,10.80
2022,10,03,08,10,10.80
2022,10,03,08,11,10.80
2022,10,03,08,12,10.80
2022,10,03,08,13,10.90
2022,10,03,08,14,10.90
2022,10,03,08,15,10.90
2022,10,03,08,16,11.00
2022,10,03,08,17,11.00
2022,10,03,08,18,11.10
2022,10,03,08,19,11.10
2022,10,03,08,20,11.10
2022,10,03,08,21,11.20
2022,10,03,08,22,11.20
2022,10,03,08,23,11.30
2022,10,03,08,24,11.30
2022,10,03,08,25,11.40
2022,10,03,08,26,11.50
2022,10,03,08,27,11.50
2022,10,03,08,28,11.60
2022,10,03,08,29,11.60
2022,10,03,08,30,11.70
2022,10,03,08,31,11.80
2022,10,03,08,32,11.80
2022,10,03,08,33,11.90
2022,10,03,08,34,12.00
2022,10,03,08,35,12.10
2022,10,03,08,36,12.20
2022,10,03,08,37,12.20
2022,10,03,08,38,12.30
2022,10,03,08,39,12.30
2022,10,03,08,40,12.40
2022,10,03,08,41,12.50
2022,10,03,08,42,12.60
2022,10,03,08,43,12.70
2022,10,03,08,44,12.80
2022,10,03,08,45,12.90
2022,10,03,08,46,13.00
2022,10,03,08,47,13.00
2022,10,03,08,48,13.20
2022,10,03,08,49,13.30
2022,10,03,08,50,13.50
2022,10,03,08,51,13.70
2022,10,03,08,52,13.90
2022,10,03,08,53,14.10
2022,10,03,08,54,14.30
2022,10,03,08,55,14.50
2022,10,03,08,56,14.60
2022,10,03,08,57,14.70
2022,10,03,08,58,14.80
2022,10,03,08,59,14.80
2022,10,03,09,00,14.90
2022,10,03,09,01,15.00
2022,10,03,09,02,15.10
2022,10,03,09,03,15.20
2022,10,03,09,04,15.30
2022,10,03,09,05,15.40
2022,10,03,09,06,15.40
2022,10,03,09,07,15.40
2022,10,03,09,08,15.40
2022,10,03,09,09,15.40
2022,10,03,09,10,15.40
2022,10,03,09,11,15.50
2022,10,03,09,12,15.50
2022,10,03,09,13,15.50
2022,10,03,09,14,15.50
2022,10,03,09,15,15.60
2022,10,03,09,16,15.60
2022,10,03,09,17,15.60
2022,10,03,09,18,15.70
2022,10,03,09,19,15.70
2022,10,03,09,20,15.70
2022,10,03,09,21,15.80
2022,10,03,09,22,15.80
2022,10,03,09,23,15.90
2022,10,03,09,24,16.00
2022,10,03,09,25,16.00
2022,10,03,09,26,16.10
2022,10,03,09,27,16.10
2022,10,03,09,28,16.10
2022,10,03,09,29,16.10
2022,10,03,09,30,16.10
2022,10,03,09,31,16.20
2022,10,03,09,32,16.30
2022,10,03,09,33,16.30
2022,10,03,09,34,16.30
2022,10,03,09,35,16.40
2022,10,03,09,36,16.40
2022,10,03,09,37,16.50
2022,10,03,09,38,16.50
2022,10,03,09,39,16.50
2022,10,03,09,40,16.60
2022,10,03,09,41,16.70
2022,10,03,09,42,16.80
2022,10,03,09,43,16.80
2022,10,03,09,44,17.00
2022,10,03,09,45,17.10
2022,10,03,09,46,17.20
2022,10,03,09,47,17.30
2022,10,03,09,48,17.40
2022,10,03,09,49,17.60
2022,10,03,09,50,17.70
2022,10,03,09,51,17.70
2022,10,03,09,52,17.80
2022,10,03,09,53,17.90
2022,10,03,09,54,18.10
2022,10,03,09,55,18.30
2022,10,03,09,56,18.40
2022,10,03,09,57,18.60
2022,10,03,09,58,18.70
2022,10,03,09,59,18.90
2022,10,03,10,00,19.00
2022,10,03,10,01,19.00
2022,10,03,10,02,19.10
2022,10,03,10,03,19.00
2022,10,03,10,04,19.00
2022,10,03,10,05,19.10
2022,10,03,10,06,19.10
2022,10,03,10,07,19.20
2022,10,03,10,08,19.20
2022,10,03,10,09,19.30
2022,10,03,10,10,19.30
2022,10,03,10,11,19.30
2022,10,03,10,12,19.40
2022,10,03,10,13,19.40
2022,10,03,10,14,19.50
2022,10,03,10,15,19.50
2022,10,03,10,16,19.60
2022,10,03,10,17,19.60
2022,10,03,10,18,19.70
2022,10,03,10,19,19.70
2022,10,03,10,20,19.70
2022,10,03,10,21,19.70
2022,10,03,10,22,19.80
2022,10,03,10,23,19.90
2022,10,03,10,24,19.90
2022,10,03,10,25,20.00
2022,10,03,10,26,20.00
2022,10,03,10,27,20.10
2022,10,03,10,28,20.10
2022,10,03,10,29,20.00
2022,10,03,10,30,19.90
2022,10,03,10,31,19.80
2022,10,03,10,32,19.80
2022,10,03,10,33,19.80
2022,10,03,10,34,19.80
2022,10,03,10,35,19.80
2022,10,03,10,36,19.80
2022,10,03,10,37,19.80
2022,10,03,10,38,19.90
2022,10,03,10,39,20.00
2022,10,03,10,40,20.10
2022,10,03,10,41,20.10
2022,10,03,10,42,20.20
2022,10,03,10,43,20.20
2022,10,03,10,44,20.30
2022,10,03,10,45,20.30
2022,10,03,10,46,20.30
2022,10,03,10,47,20.20
2022,10,03,10,48,20.20
2022,10,03,10,49,20.20
2022,10,03,10,50,20.20
2022,10,03,10,51,20.30
2022,10,03,10,52,20.40
2022,10,03,10,53,20.40
2022,10,03,10,54,20.40
2022,10,03,10,55,20.40
2022,10,03,10,56,20.40
2022,10,03,10,57,20.40
2022,10,03,10,58,20.40
2022,10,03,10,59,20.40
2022,10,03,11,00,20.40
2022,10,03,11,01,20.40
2022,10,03,11,02,20.40
2022,10,03,11,03,20.30
2022,10,03,11,04,20.20
2022,10,03,11,05,20.10
2022,10,03,11,06,20.10
2022,10,03,11,07,20.00
2022,10,03,11,08,19.90
2022,10,03,11,09,19.90
2022,10,03,11,10,19.90
2022,10,03,11,11,19.90
2022,10,03,11,12,20.10
2022,10,03,11,13,20.20
2022,10,03,11,14,20.30
2022,10,03,11,15,20.40
2022,10,03,11,16,20.60
2022,10,03,11,17,20.80
2022,10,03,11,18,20.80
2022,10,03,11,19,20.80
2022,10,03,11,20,20.90
2022,10,03,11,21,21.00
2022,10,03,11,22,21.00
2022,10,03,11,23,21.10
2022,10,03,11,24,21.20
2022,10,03,11,25,21.30
2022,10,03,11,26,21.40
2022,10,03,11,27,21.60
2022,10,03,11,28,21.60
2022,10,03,11,29,21.70
2022,10,03,11,30,21.80
2022,10,03,11,31,21.70
2022,10,03,11,32,21.70
2022,10,03,11,33,21.70
2022,10,03,11,34,21.70
2022,10,03,11,35,21.70
2022,10,03,11,36,21.80
2022,10,03,11,37,21.90
2022,10,03,11,38,21.90
2022,10,03,11,39,21.90
2022,10,03,11,40,21.80
2022,10,03,11,41,21.60
2022,10,03,11,42,21.40
2022,10,03,11,43,21.30
2022,10,03,11,44,21.40
2022,10,03,11,45,21.50
2022,10,03,11,46,21.60
2022,10,03,11,47,21.70
2022,10,03,11,48,21.70
2022,10,03,11,49,21.80
2022,10,03,11,50,21.90
2022,10,03,11,51,22.00
2022,10,03,11,52,22.10
2022,10,03,11,53,22.20
2022,10,03,11,54,22.30
2022,10,03,11,55,22.30
2022,10,03,11,56,22.40
2022,10,03,11,57,22.40
2022,10,03,11,58,22.50
2022,10,03,11,59,22.40
2022,10,03,12,00,22.30
2022,10,03,12,01,22.20
2022,10,03,12,02,22.20
2022,10,03,12,03,22.10
2022,10,03,12,04,22.00
2022,10,03,12,05,21.80
2022,10,03,12,06,21.60
2022,10,03,12,07,21.50
2022,10,03,12,08,21.40
2022,10,03,12,09,21.30
2022,10,03,12,10,21.30
2022,10,03,12,11,21.30
2022,10,03,12,12,21.30
2022,10,03,12,13,21.30
2022,10,03,12,14,21.30
2022,10,03,12,15,21.40
2022,10,03,12,16,21.60
2022,10,03,12,17,21.80
2022,10,03,12,18,21.90
2022,10,03,12,19,22.00
2022,10,03,12,20,22.00
2022,10,03,12,21,22.20
2022,10,03,12,22,22.30
2022,10,03,12,23,22.30
2022,10,03,12,24,22.30
2022,10,03,12,25,22.20
2022,10,03,12,26,22.00
2022,10,03,12,27,21.90
2022,10,03,12,28,21.90
2022,10,03,12,29,21.80
2022,10,03,12,30,21.80
2022,10,03,12,31,21.80
2022,10,03,12,32,21.80
2022,10,03,12,33,21.80
2022,10,03,12,34,21.90
2022,10,03,12,35,22.00
2022,10,03,12,36,22.20
2022,10,03,12,37,22.20
2022,10,03,12,38,22.20
2022,10,03,12,39,22.20
2022,10,03,12,40,22.20
2022,10,03,12,41,22.20
2022,10,03,12,42,22.20
2022,10,03,12,43,22.30
2022,10,03,12,44,22.20
2022,10,03,12,45,22.30
2022,10,03,12,46,22.30
2022,10,03,12,47,22.10
2022,10,03,12,48,21.90
2022,10,03,12,49,21.50
2022,10,03,12,50,21.20
2022,10,03,12,51,21.00
2022,10,03,12,52,20.80
2022,10,03,12,53,20.70
2022,10,03,12,54,20.60
2022,10,03,12,55,20.60
2022,10,03,12,56,20.50
2022,10,03,12,57,20.40
2022,10,03,12,58,20.30
2022,10,03,12,59,20.20
2022,10,03,13,00,20.10
2022,10,03,13,01,20.10
2022,10,03,13,02,20.00
2022,10,03,13,03,19.90
2022,10,03,13,04,19.80
2022,10,03,13,05,19.70
2022,10,03,13,06,19.70
2022,10,03,13,07,19.70
2022,10,03,13,08,19.70
2022,10,03,13,09,19.60
2022,10,03,13,10,19.60
2022,10,03,13,11,19.60
2022,10,03,13,12,19.50
2022,10,03,13,13,19.50
2022,10,03,13,14,19.50
2022,10,03,13,15,19.50
2022,10,03,13,16,19.60
2022,10,03,13,17,19.60
2022,10,03,13,18,19.70
2022,10,03,13,19,19.80
2022,10,03,13,20,19.90
2022,10,03,13,21,19.90
2022,10,03,13,22,19.90
2022,10,03,13,23,19.90
2022,10,03,13,24,19.90
2022,10,03,13,25,19.90
2022,10,03,13,26,19.80
2022,10,03,13,27,19.70
2022,10,03,13,28,19.70
2022,10,03,13,29,19.60
2022,10,03,13,30,19.50
2022,10,03,13,31,19.50
2022,10,03,13,32,19.60
2022,10,03,13,33,19.70
2022,10,03,13,34,19.90
2022,10,03,13,35,19.90
2022,10,03,13,36,20.00
2022,10,03,13,37,20.10
2022,10,03,13,38,20.10
2022,10,03,13,39,20.00
2022,10,03,13,40,20.00
2022,10,03,13,41,20.10
2022,10,03,13,42,20.10
2022,10,03,13,43,20.00
2022,10,03,13,44,20.10
2022,10,03,13,45,20.10
2022,10,03,13,46,20.00
2022,10,03,13,47,19.90
2022,10,03,13,48,19.90
2022,10,03,13,49,19.90
2022,10,03,13,50,20.10
2022,10,03,13,51,20.30
2022,10,03,13,52,20.40
2022,10,03,13,53,20.40
2022,10,03,13,54,20.50
2022,10,03,13,55,20.50
2022,10,03,13,56,20.40
2022,10,03,13,57,20.30
2022,10,03,13,58,20.30
2022,10,03,13,59,20.30
2022,10,03,14,00,20.30
2022,10,03,14,01,20.30
2022,10,03,14,02,20.30
2022,10,03,14,03,20.30
2022,10,03,14,04,20.30
2022,10,03,14,05,20.30
2022,10,03,14,06,20.20
2022,10,03,14,07,20.30
2022,10,03,14,08,20.40
2022,10,03,14,09,20.60
2022,10,03,14,10,20.70
2022,10,03,14,11,20.80
2022,10,03,14,12,20.90
2022,10,03,14,13,20.90
2022,10,03,14,14,20.80
2022,10,03,14,15,20.90
2022,10,03,14,16,20.90
2022,10,03,14,17,20.90
2022,10,03,14,18,20.90
2022,10,03,14,19,20.90
2022,10,03,14,20,20.90
2022,10,03,14,21,20.90
2022,10,03,14,22,21.00
2022,10,03,14,23,21.00
2022,10,03,14,24,21.00
2022,10,03,14,25,21.00
2022,10,03,14,26,21.00
2022,10,03,14,27,21.10
2022,10,03,14,28,21.30
2022,10,03,14,29,21.40
2022,10,03,14,30,21.50
2022,10,03,14,31,21.50
2022,10,03,14,32,21.40
2022,10,03,14,33,21.40
2022,10,03,14,34,21.50
2022,10,03,14,35,21.50
2022,10,03,14,36,21.50
2022,10,03,14,37,21.60
2022,10,03,14,38,21.70
2022,10,03,14,39,21.80
2022,10,03,14,40,21.80
2022,10,03,14,41,21.80
2022,10,03,14,42,21.80
2022,10,03,14,43,21.70
2022,10,03,14,44,21.70
2022,10,03,14,45,21.70
2022,10,03,14,46,21.70
2022,10,03,14,47,21.70
2022,10,03,14,48,21.70
2022,10,03,14,49,21.80
2022,10,03,14,50,21.90
2022,10,03,14,51,22.00
2022,10,03,14,52,22.10
2022,10,03,14,53,22.00
2022,10,03,14,54,22.00
2022,10,03,14,55,22.00
2022,10,03,14,56,22.10
2022,10,03,14,57,22.20
2022,10,03,14,58,22.30
2022,10,03,14,59,22.40
2022,10,03,15,00,22.40
2022,10,03,15,01,22.50
2022,10,03,15,02,22.60
2022,10,03,15,03,22.70
2022,10,03,15,04,22.70
2022,10,03,15,05,22.70
2022,10,03,15,06,22.70
2022,10,03,15,07,22.60
2022,10,03,15,08,22.60
2022,10,03,15,09,22.60
2022,10,03,15,10,22.70
2022,10,03,15,11,22.80
2022,10,03,15,12,22.70
2022,10,03,15,13,22.70
2022,10,03,15,14,22.80
2022,10,03,15,15,22.80
2022,10,03,15,16,22.80
2022,10,03,15,17,22.80
2022,10,03,15,18,22.80
2022,10,03,15,19,22.70
2022,10,03,15,20,22.70
2022,10,03,15,21,22.70
2022,10,03,15,22,22.70
2022,10,03,15,23,22.70
2022,10,03,15,24,22.60
2022,10,03,15,25,22.60
2022,10,03,15,26,22.60
2022,10,03,15,27,22.40
2022,10,03,15,28,22.20
2022,10,03,15,29,22.10
2022,10,03,15,30,22.10
2022,10,03,15,31,22.00
2022,10,03,15,32,21.90
2022,10,03,15,33,21.80
2022,10,03,15,34,21.80
2022,10,03,15,35,21.70
2022,10,03,15,36,21.80
2022,10,03,15,37,21.80
2022,10,03,15,38,21.80
2022,10,03,15,39,21.80
2022,10,03,15,40,21.60
2022,10,03,15,41,21.50
2022,10,03,15,42,21.50
2022,10,03,15,43,21.50
2022,10,03,15,44,21.40
2022,10,03,15,45,21.30
2022,10,03,15,46,21.20
2022,10,03,15,47,21.10
2022,10,03,15,48,21.10
2022,10,03,15,49,21.10
2022,10,03,15,50,21.10
2022,10,03,15,51,21.10
2022,10,03,15,52,21.10
2022,10,03,15,53,20.90
2022,10,03,15,54,20.80
2022,10,03,15,55,20.80
2022,10,03,15,56,20.80
2022,10,03,15,57,20.70
2022,10,03,15,58,20.70
2022,10,03,15,59,20.70
2022,10,03,16,00,20.60
2022,10,03,16,01,20.50
2022,10,03,16,02,20.50
2022,10,03,16,03,20.60
2022,10,03,16,04,20.60
2022,10,03,16,05,20.70
2022,10,03,16,06,20.70
2022,10,03,16,07,20.70
2022,10,03,16,08,20.70
2022,10,03,16,09,20.70
2022,10,03,16,10,20.70
2022,10,03,16,11,20.70
2022,10,03,16,12,20.70
2022,10,03,16,13,20.70
2022,10,03,16,14,20.70
2022,10,03,16,15,20.60
2022,10,03,16,16,20.60
2022,10,03,16,17,20.50
2022,10,03,16,18,20.50
2022,10,03,16,19,20.40
2022,10,03,16,20,20.50
2022,10,03,16,21,20.60
2022,10,03,16,22,20.70
2022,10,03,16,23,20.70
2022,10,03,16,24,20.60
2022,10,03,16,25,20.70
2022,10,03,16,26,20.70
2022,10,03,16,27,20.70
2022,10,03,16,28,20.70
2022,10,03,16,29,20.70
2022,10,03,16,30,20.70
2022,10,03,16,31,20.70
2022,10,03,16,32,20.70
2022,10,03,16,33,20.60
2022,10,03,16,34,20.60
2022,10,03,16,35,20.60
2022,10,03,16,36,20.60
2022,10,03,16,37,20.70
2022,10,03,16,38,20.60
2022,10,03,16,39,20.70
2022,10,03,16,40,20.70
2022,10,03,16,41,20.70
2022,10,03,16,42,20.80
2022,10,03,16,43,20.80
2022,10,03,16,44,20.90
2022,10,03,16,45,20.90
2022,10,03,16,46,20.90
2022,10,03,16,47,21.00
2022,10,03,16,48,21.10
2022,10,03,16,49,21.00
2022,10,03,16,50,20.90
2022,10,03,16,51,20.90
2022,10,03,16,52,20.80
2022,10,03,16,53,20.80
2022,10,03,16,54,20.80
2022,10,03,16,55,20.80
2022,10,03,16,56,20.80
2022,10,03,16,57,20.80
2022,10,03,16,58,20.80
2022,10,03,16,59,20.90
2022,10,03,17,00,20.90
2022,10,03,17,01,20.90
2022,10,03,17,02,20.90
2022,10,03,17,03,20.80
2022,10,03,17,04,20.80
2022,10,03,17,05,20.80
2022,10,03,17,06,20.80
2022,10,03,17,07,20.80
2022,10,03,17,08,20.80
2022,10,03,17,09,20.80
2022,10,03,17,10,20.70
2022,10,03,17,11,20.70
2022,10,03,17,12,20.60
2022,10,03,17,13,20.60
2022,10,03,17,14,20.60
2022,10,03,17,15,20.50
2022,10,03,17,16,20.50
2022,10,03,17,17,20.50
2022,10,03,17,18,20.50
2022,10,03,17,19,20.50
2022,10,03,17,20,20.50